When you browse on this site, cookies collect data to enhance your experience and personalize the content and advertising you see.
Visit our Privacy Policy to learn more. By continuing to use the site, you agree to this use of cookies and data.
  • In Slovakia
  • List of Countries
  • For 7 days
  • Water Temperature
  • Satellite Maps
  • Weather Map
  • Weather Widgets
  • user-avatar
    Login

    Hourly Weather Laszkar Gah

    Today, 11 December, Tuesday

    Time Temperature Precipitation Wind Pressure Humidity
    00:00 +11°C° 0 mm 3 mps 694 mmHg 42%
    01:00 +12°C° 0 mm 2 mps 694 mmHg 44%
    02:00 +10°C° 0 mm 2 mps 694 mmHg 45%
    03:00 +10°C° 0 mm 2 mps 693 mmHg 46%
    04:00 +9°C° 0 mm 2 mps 693 mmHg 49%
    05:00 +9°C° 0 mm 2 mps 694 mmHg 50%
    06:00 +9°C° 0 mm 2 mps 694 mmHg 51%
    07:00 +9°C° 0 mm 2 mps 694 mmHg 51%
    08:00 +10°C° 0 mm 2 mps 695 mmHg 47%
    09:00 +13°C° 0 mm 2 mps 695 mmHg 42%
    10:00 +14°C° 0 mm 2 mps 696 mmHg 38%
    11:00 +15°C° 0 mm 2 mps 696 mmHg 35%
    12:00 +16°C° 0 mm 2 mps 695 mmHg 32%
    13:00 +16°C° 0 mm 2 mps 695 mmHg 29%
    14:00 +16°C° 0 mm 2 mps 695 mmHg 29%
    15:00 +16°C° 0 mm 2 mps 695 mmHg 28%
    16:00 +16°C° 0 mm 3 mps 695 mmHg 27%
    17:00 +16°C° 0 mm 2 mps 695 mmHg 30%
    18:00 +15°C° 0 mm 2 mps 695 mmHg 32%
    19:00 +14°C° 0 mm 2 mps 695 mmHg 34%
    20:00 +13°C° 0 mm 2 mps 695 mmHg 36%
    21:00 +13°C° 0 mm 1 mps 695 mmHg 37%
    22:00 +12°C° 0 mm 1 mps 695 mmHg 39%
    23:00 +12°C° 0 mm 1 mps 695 mmHg 40%

    Tomorrow, 12 December, Wednesday

    Time Temperature Precipitation Wind Pressure Humidity
    00:00 +11°C° 0 mm 1 mps 695 mmHg 41%
    01:00 +11°C° 0 mm 1 mps 695 mmHg 42%
    02:00 +10°C° 0 mm 1 mps 695 mmHg 43%
    03:00 +10°C° 0 mm 1 mps 695 mmHg 44%
    04:00 +10°C° 0 mm 1 mps 695 mmHg 45%
    05:00 +10°C° 0 mm 1 mps 695 mmHg 45%
    06:00 +9°C° 0 mm 1 mps 696 mmHg 46%
    07:00 +9°C° 0 mm 1 mps 696 mmHg 47%
    08:00 +11°C° 0 mm 1 mps 697 mmHg 42%
    09:00 +13°C° 0 mm 1 mps 698 mmHg 37%
    10:00 +14°C° 0 mm 1 mps 699 mmHg 32%
    11:00 +15°C° 0 mm 1 mps 698 mmHg 30%
    12:00 +16°C° 0 mm 1 mps 698 mmHg 28%
    13:00 +16°C° 0 mm 1 mps 698 mmHg 26%
    14:00 +16°C° 0 mm 1 mps 698 mmHg 26%
    15:00 +16°C° 0 mm 1 mps 697 mmHg 26%
    16:00 +16°C° 0 mm 1 mps 697 mmHg 26%
    17:00 +15°C° 0 mm 1 mps 698 mmHg 29%
    18:00 +14°C° 0 mm 1 mps 698 mmHg 32%
    19:00 +12°C° 0 mm 0 mps 698 mmHg 34%
    20:00 +13°C° 0 mm 1 mps 698 mmHg 35%
    21:00 +12°C° 0 mm 1 mps 698 mmHg 36%
    22:00 +12°C° 0 mm 1 mps 698 mmHg 37%
    23:00 +11°C° 0 mm 1 mps 698 mmHg 38%

    Day after tomorrow, 13 December, Thursday

    Time Temperature Precipitation Wind Pressure Humidity
    00:00 +11°C° 0 mm 1 mps 698 mmHg 39%
    01:00 +11°C° 0 mm 1 mps 697 mmHg 39%
    02:00 +10°C° 0 mm 1 mps 697 mmHg 40%
    03:00 +10°C° 0 mm 1 mps 697 mmHg 41%
    04:00 +10°C° 0 mm 1 mps 697 mmHg 41%
    05:00 +10°C° 0 mm 1 mps 698 mmHg 41%
    06:00 +9°C° 0 mm 2 mps 698 mmHg 41%
    07:00 +9°C° 0 mm 2 mps 698 mmHg 41%
    08:00 +10°C° 0 mm 2 mps 699 mmHg 37%
    09:00 +13°C° 0 mm 2 mps 700 mmHg 33%
    10:00 +15°C° 0 mm 2 mps 700 mmHg 29%
    11:00 +16°C° 0 mm 1 mps 700 mmHg 27%
    12:00 +16°C° 0 mm 1 mps 699 mmHg 25%
    13:00 +18°C° 0 mm 1 mps 699 mmHg 23%
    14:00 +18°C° 0 mm 1 mps 699 mmHg 23%
    15:00 +16°C° 0 mm 0 mps 698 mmHg 23%
    16:00 +16°C° 0 mm 0 mps 698 mmHg 24%
    17:00 +16°C° 0 mm 1 mps 698 mmHg 25%
    18:00 +15°C° 0 mm 1 mps 698 mmHg 27%
    19:00 +14°C° 0 mm 1 mps 698 mmHg 28%
    20:00 +13°C° 0 mm 2 mps 698 mmHg 28%
    21:00 +13°C° 0 mm 2 mps 698 mmHg 29%
    22:00 +13°C° 0 mm 2 mps 699 mmHg 29%
    23:00 +12°C° 0 mm 2 mps 698 mmHg 29%

    14 December, Friday

    Time Temperature Precipitation Wind Pressure Humidity
    00:00 +11°C° 0 mm 3 mps 698 mmHg 30%
    01:00 +11°C° 0 mm 3 mps 698 mmHg 30%
    02:00 +10°C° 0 mm 3 mps 698 mmHg 31%
    03:00 +10°C° 0 mm 3 mps 698 mmHg 32%
    04:00 +10°C° 0 mm 3 mps 697 mmHg 32%
    05:00 +9°C° 0 mm 3 mps 698 mmHg 33%
    06:00 +9°C° 0 mm 2 mps 698 mmHg 33%
    07:00 +9°C° 0 mm 2 mps 698 mmHg 33%
    08:00 +12°C° 0 mm 2 mps 699 mmHg 29%
    09:00 +14°C° 0 mm 2 mps 700 mmHg 26%
    10:00 +16°C° 0 mm 2 mps 700 mmHg 22%
    11:00 +16°C° 0 mm 2 mps 700 mmHg 20%
    12:00 +18°C° 0 mm 1 mps 699 mmHg 18%
    13:00 +19°C° 0 mm 1 mps 699 mmHg 17%
    14:00 +19°C° 0 mm 1 mps 699 mmHg 18%
    15:00 +19°C° 0 mm 1 mps 699 mmHg 18%
    16:00 +16°C° 0 mm 0 mps 699 mmHg 19%
    17:00 +16°C° 0 mm 1 mps 699 mmHg 21%
    18:00 +15°C° 0 mm 1 mps 699 mmHg 22%
    19:00 +14°C° 0 mm 1 mps 699 mmHg 23%
    20:00 +13°C° 0 mm 1 mps 699 mmHg 24%
    21:00 +13°C° 0 mm 1 mps 699 mmHg 24%
    22:00 +13°C° 0 mm 2 mps 699 mmHg 24%
    23:00 +12°C° 0 mm 2 mps 698 mmHg 25%

    15 December, Saturday

    Time Temperature Precipitation Wind Pressure Humidity
    00:00 +12°C° 0 mm 2 mps 698 mmHg 25%
    01:00 +12°C° 0 mm 2 mps 698 mmHg 25%
    02:00 +12°C° 0 mm 2 mps 698 mmHg 26%
    03:00 +10°C° 0 mm 2 mps 698 mmHg 26%
    04:00 +10°C° 0 mm 2 mps 697 mmHg 27%
    05:00 +10°C° 0 mm 2 mps 698 mmHg 27%
    06:00 +10°C° 0 mm 2 mps 698 mmHg 28%
    07:00 +9°C° 0 mm 2 mps 698 mmHg 28%
    08:00 +12°C° 0 mm 2 mps 699 mmHg 25%
    09:00 +14°C° 0 mm 2 mps 700 mmHg 21%
    10:00 +16°C° 0 mm 2 mps 700 mmHg 18%
    11:00 +17°C° 0 mm 2 mps 700 mmHg 17%
    12:00 +19°C° 0 mm 1 mps 699 mmHg 15%
    13:00 +20°C° 0 mm 1 mps 699 mmHg 14%
    14:00 +19°C° 0 mm 1 mps 699 mmHg 15%
    15:00 +19°C° 0 mm 1 mps 699 mmHg 16%
    16:00 +19°C° 0 mm 1 mps 699 mmHg 17%
    17:00 +16°C° 0 mm 1 mps 699 mmHg 18%
    18:00 +15°C° 0 mm 1 mps 699 mmHg 19%
    19:00 +14°C° 0 mm 1 mps 699 mmHg 21%
    20:00 +13°C° 0 mm 1 mps 699 mmHg 21%
    21:00 +13°C° 0 mm 1 mps 699 mmHg 21%
    22:00 +13°C° 0 mm 1 mps 699 mmHg 22%
    23:00 +12°C° 0 mm 1 mps 699 mmHg 22%

    16 December, Sunday

    Time Temperature Precipitation Wind Pressure Humidity
    00:00 +12°C° 0 mm 1 mps 699 mmHg 22%
    01:00 +12°C° 0 mm 1 mps 699 mmHg 22%
    02:00 +11°C° 0 mm 1 mps 699 mmHg 23%
    03:00 +10°C° 0 mm 2 mps 698 mmHg 23%
    04:00 +10°C° 0 mm 2 mps 698 mmHg 23%
    05:00 +9°C° 0 mm 2 mps 699 mmHg 23%
    06:00 +10°C° 0 mm 1 mps 699 mmHg 24%
    07:00 +10°C° 0 mm 1 mps 699 mmHg 24%
    08:00 +12°C° 0 mm 1 mps 700 mmHg 21%
    09:00 +14°C° 0 mm 1 mps 701 mmHg 18%
    10:00 +16°C° 0 mm 1 mps 701 mmHg 15%
    11:00 +18°C° 0 mm 1 mps 701 mmHg 14%
    12:00 +19°C° 0 mm 1 mps 700 mmHg 13%
    13:00 +20°C° 0 mm 1 mps 700 mmHg 12%
    14:00 +19°C° 0 mm 1 mps 700 mmHg 13%
    15:00 +19°C° 0 mm 1 mps 699 mmHg 14%
    16:00 +18°C° 0 mm 2 mps 699 mmHg 15%
    17:00 +17°C° 0 mm 2 mps 699 mmHg 17%
    18:00 +15°C° 0 mm 2 mps 699 mmHg 19%
    19:00 +14°C° 0 mm 2 mps 700 mmHg 21%
    20:00 +14°C° 0 mm 2 mps 699 mmHg 23%
    21:00 +13°C° 0 mm 2 mps 699 mmHg 25%
    22:00 +12°C° 0 mm 2 mps 699 mmHg 27%
    23:00 +12°C° 0 mm 1 mps 699 mmHg 29%
    Show more